STARLINK-1641 (46174 NORAD) Tracking and Keplerian Element Data

This shows tracking and keplerian element data for the satellite.

Feedback or suggestion? Click here.




ElementValue
Catalog46174
NameSTARLINK-1641
Epoch Orbit175
Epoch Day335.91670139
Epoch Year2020
RAAN317.3087
Inclination52.9908
Eccentricity0.0001532
Argument of Perigee71.1864
Mean Anonmoly0.5467
Mean Motion15.05577877
Decay Rate0.00033177
L11 46174U 20057BK 20335.91670139 .00033177 00000-0 22856-2 0 9991
L22 46174 52.9908 317.3087 0001532 71.1864 0.5467 15.05577877 1751

Live tracking and technical data element details for STARLINK-1641 (NORAD 46174). STARLINK-1641 can be tracked NOW for your location showing map with azimuth and elevation plus other details from your city location.

Track the satellite on the map from your city or location and see movement details for azimuth, elevation, latitude, longitude, range, height, and movement on the map or in text.







IsCatalogInMostPopularTable: catalog: 46174, numindb: 28
Update: records affected: 1



GetName: 46174 STARLINK-1641

Hit Count: updated at: Tue, 01 Dec 2020 20:37:49 GMT